contact:dominique.lefevre@mio.osupytheas.fr, maurice.libes@osupytheas.fr, didier.mallarino@osupytheas.fr
Project:EMSO http://www.emso-fr.org/EMSO-France
Depth: 2436.0 m
Title:EMSO Ligure Ouest : Data MII capteur CSTAR
DateTime,Latitude,Longitude,Instrument_Serial,Reference_Counts,Signal_Counts,Corrected_Signal_raw_counts,Calculated_Beam_c_inverse_meters,Internal_thermistor_counts
DateTime,Latitude,Longitude,Instrument_Serial,Reference_Counts,Signal_Counts,Corrected_Signal_raw_counts,Calculated_Beam_c_inverse_meters,Internal_thermistor_counts
2019-11-06T00:00:42,42.805,6.029,CST-1368DR,7431,10408,15315,0.078,551
2019-11-06T00:03:44,42.805,6.029,CST-1368DR,7431,10408,15316,0.078,551
2019-11-06T00:06:46,42.805,6.029,CST-1368DR,7431,10409,15316,0.078,551
2019-11-06T00:09:48,42.805,6.029,CST-1368DR,7431,10409,15317,0.077,551
2019-11-06T00:12:49,42.805,6.029,CST-1368DR,7431,10407,15313,0.078,551
2019-11-06T00:15:51,42.805,6.029,CST-1368DR,7431,10408,15315,0.078,551
2019-11-06T00:18:52,42.805,6.029,CST-1368DR,7431,10406,15312,0.079,551
2019-11-06T00:21:54,42.805,6.029,CST-1368DR,7431,10407,15314,0.078,551
2019-11-06T00:24:56,42.805,6.029,CST-1368DR,7431,10408,15316,0.078,551
2019-11-06T00:27:57,42.805,6.029,CST-1368DR,7431,10409,15317,0.077,551
2019-11-06T00:30:59,42.805,6.029,CST-1368DR,7431,10400,15303,0.081,551
2019-11-06T00:34:01,42.805,6.029,CST-1368DR,7431,10407,15314,0.078,551
2019-11-06T00:37:02,42.805,6.029,CST-1368DR,7431,10408,15315,0.078,551
2019-11-06T00:40:04,42.805,6.029,CST-1368DR,7431,10408,15316,0.078,551
2019-11-06T00:43:06,42.805,6.029,CST-1368DR,7431,10408,15316,0.078,551
2019-11-06T00:46:07,42.805,6.029,CST-1368DR,7431,10408,15315,0.078,551
2019-11-06T00:49:09,42.805,6.029,CST-1368DR,7431,10409,15317,0.077,551
2019-11-06T00:52:11,42.805,6.029,CST-1368DR,7431,10409,15317,0.077,551
2019-11-06T00:55:12,42.805,6.029,CST-1368DR,7431,10407,15314,0.078,551
2019-11-06T00:58:14,42.805,6.029,CST-1368DR,7431,10409,15317,0.077,550
2019-11-06T01:01:15,42.805,6.029,CST-1368DR,7431,10409,15316,0.078,551
2019-11-06T01:04:17,42.805,6.029,CST-1368DR,7431,10407,15314,0.078,551
2019-11-06T01:07:19,42.805,6.029,CST-1368DR,7431,10408,15315,0.078,551
2019-11-06T01:10:20,42.805,6.029,CST-1368DR,7431,10408,15316,0.078,551
2019-11-06T01:13:22,42.805,6.029,CST-1368DR,7431,10404,15309,0.079,551
2019-11-06T01:16:24,42.805,6.029,CST-1368DR,7431,10408,15316,0.078,551
2019-11-06T01:19:25,42.805,6.029,CST-1368DR,7431,10407,15314,0.078,551
2019-11-06T01:22:27,42.805,6.029,CST-1368DR,7431,10408,15315,0.078,551
2019-11-06T01:25:29,42.805,6.029,CST-1368DR,7431,10407,15313,0.078,551
2019-11-06T01:28:30,42.805,6.029,CST-1368DR,7431,10408,15315,0.078,551
2019-11-06T01:31:32,42.805,6.029,CST-1368DR,7431,10407,15314,0.078,551
2019-11-06T01:34:33,42.805,6.029,CST-1368DR,7431,10407,15313,0.078,551
2019-11-06T01:37:35,42.805,6.029,CST-1368DR,7431,10405,15311,0.079,551
2019-11-06T01:40:37,42.805,6.029,CST-1368DR,7431,10409,15317,0.077,551
2019-11-06T01:43:38,42.805,6.029,CST-1368DR,7431,10408,15316,0.078,551
2019-11-06T01:46:40,42.805,6.029,CST-1368DR,7431,10406,15312,0.079,551
2019-11-06T01:49:42,42.805,6.029,CST-1368DR,7431,10407,15313,0.078,551
2019-11-06T01:52:43,42.805,6.029,CST-1368DR,7431,10408,15315,0.078,551
2019-11-06T01:55:45,42.805,6.029,CST-1368DR,7431,10408,15315,0.078,551
2019-11-06T01:58:47,42.805,6.029,CST-1368DR,7431,10407,15313,0.078,551
2019-11-06T02:01:48,42.805,6.029,CST-1368DR,7431,10407,15314,0.078,551
2019-11-06T02:04:50,42.805,6.029,CST-1368DR,7430,10408,15317,0.077,551
2019-11-06T02:07:52,42.805,6.029,CST-1368DR,7430,10409,15318,0.077,550
2019-11-06T02:10:53,42.805,6.029,CST-1368DR,7431,10409,15316,0.078,550
2019-11-06T02:13:55,42.805,6.029,CST-1368DR,7431,10407,15314,0.078,551
2019-11-06T02:16:56,42.805,6.029,CST-1368DR,7430,10408,15317,0.077,551
2019-11-06T02:19:58,42.805,6.029,CST-1368DR,7430,10408,15317,0.077,551
2019-11-06T02:23:00,42.805,6.029,CST-1368DR,7431,10407,15313,0.078,551
2019-11-06T02:26:01,42.805,6.029,CST-1368DR,7430,10408,15318,0.077,550
2019-11-06T02:29:03,42.805,6.029,CST-1368DR,7431,10407,15313,0.078,551
2019-11-06T02:32:05,42.805,6.029,CST-1368DR,7430,10407,15315,0.078,551
2019-11-06T02:35:06,42.805,6.029,CST-1368DR,7430,10408,15317,0.077,551
2019-11-06T02:38:08,42.805,6.029,CST-1368DR,7430,10407,15316,0.078,551
2019-11-06T02:41:10,42.805,6.029,CST-1368DR,7430,10407,15315,0.078,551
2019-11-06T02:44:11,42.805,6.029,CST-1368DR,7430,10407,15315,0.078,551
2019-11-06T02:47:13,42.805,6.029,CST-1368DR,7430,10407,15315,0.078,551
2019-11-06T02:50:15,42.805,6.029,CST-1368DR,7430,10407,15316,0.078,551
2019-11-06T02:53:16,42.805,6.029,CST-1368DR,7430,10407,15315,0.078,551
2019-11-06T02:56:18,42.805,6.029,CST-1368DR,7430,10404,15311,0.079,551
2019-11-06T02:59:19,42.805,6.029,CST-1368DR,7430,10407,15315,0.078,551
2019-11-06T03:02:21,42.805,6.029,CST-1368DR,7430,10406,15314,0.078,551
2019-11-06T03:05:23,42.805,6.029,CST-1368DR,7430,10407,15316,0.078,551
2019-11-06T03:08:24,42.805,6.029,CST-1368DR,7430,10407,15315,0.078,551
2019-11-06T03:11:26,42.805,6.029,CST-1368DR,7430,10406,15315,0.078,551
2019-11-06T03:14:28,42.805,6.029,CST-1368DR,7430,10408,15317,0.077,551
2019-11-06T03:17:29,42.805,6.029,CST-1368DR,7430,10407,15315,0.078,551
2019-11-06T03:20:31,42.805,6.029,CST-1368DR,7430,10407,15315,0.078,551
2019-11-06T03:23:33,42.805,6.029,CST-1368DR,7430,10407,15316,0.078,551
2019-11-06T03:26:34,42.805,6.029,CST-1368DR,7430,10407,15315,0.078,551
2019-11-06T03:29:36,42.805,6.029,CST-1368DR,7430,10406,15315,0.078,551
2019-11-06T03:32:38,42.805,6.029,CST-1368DR,7430,10407,15315,0.078,551
2019-11-06T03:35:39,42.805,6.029,CST-1368DR,7430,10407,15315,0.078,551
2019-11-06T03:38:41,42.805,6.029,CST-1368DR,7430,10407,15316,0.078,551
2019-11-06T03:41:42,42.805,6.029,CST-1368DR,7430,10407,15315,0.078,551
2019-11-06T03:44:44,42.805,6.029,CST-1368DR,7430,10406,15314,0.078,551
2019-11-06T03:47:46,42.805,6.029,CST-1368DR,7430,10406,15314,0.078,551
2019-11-06T03:50:47,42.805,6.029,CST-1368DR,7430,10406,15314,0.078,551
2019-11-06T03:53:49,42.805,6.029,CST-1368DR,7430,10407,15315,0.078,551
2019-11-06T03:56:51,42.805,6.029,CST-1368DR,7430,10408,15317,0.077,551
2019-11-06T03:59:52,42.805,6.029,CST-1368DR,7430,10406,15314,0.078,551
2019-11-06T04:02:54,42.805,6.029,CST-1368DR,7430,10407,15315,0.078,551
2019-11-06T04:05:56,42.805,6.029,CST-1368DR,7430,10407,15315,0.078,550
2019-11-06T04:08:57,42.805,6.029,CST-1368DR,7430,10407,15315,0.078,551
2019-11-06T04:11:59,42.805,6.029,CST-1368DR,7430,10407,15316,0.078,551
2019-11-06T04:15:01,42.805,6.029,CST-1368DR,7430,10407,15316,0.078,551
2019-11-06T04:18:02,42.805,6.029,CST-1368DR,7430,10406,15314,0.078,551
2019-11-06T04:21:04,42.805,6.029,CST-1368DR,7430,10406,15314,0.078,551
2019-11-06T04:24:05,42.805,6.029,CST-1368DR,7430,10405,15313,0.078,551
2019-11-06T04:27:07,42.805,6.029,CST-1368DR,7430,10407,15316,0.078,551
2019-11-06T04:30:09,42.805,6.029,CST-1368DR,7430,10407,15316,0.078,551
2019-11-06T04:33:10,42.805,6.029,CST-1368DR,7430,10406,15314,0.078,551
2019-11-06T04:36:12,42.805,6.029,CST-1368DR,7430,10406,15314,0.078,551
2019-11-06T04:39:14,42.805,6.029,CST-1368DR,7430,10404,15312,0.079,551
2019-11-06T04:42:15,42.805,6.029,CST-1368DR,7430,10406,15315,0.078,551
2019-11-06T04:45:17,42.805,6.029,CST-1368DR,7430,10407,15315,0.078,551
2019-11-06T04:48:19,42.805,6.029,CST-1368DR,7430,10407,15316,0.078,551
2019-11-06T04:51:20,42.805,6.029,CST-1368DR,7430,10406,15314,0.078,551
2019-11-06T04:54:22,42.805,6.029,CST-1368DR,7430,10406,15314,0.078,551
2019-11-06T04:57:24,42.805,6.029,CST-1368DR,7430,10407,15316,0.078,551
2019-11-06T05:00:25,42.805,6.029,CST-1368DR,7430,10406,15314,0.078,551
2019-11-06T05:03:27,42.805,6.029,CST-1368DR,7430,10407,15316,0.078,551
2019-11-06T05:06:28,42.805,6.029,CST-1368DR,7430,10408,15317,0.077,551
2019-11-06T05:09:30,42.805,6.029,CST-1368DR,7430,10407,15316,0.078,551
2019-11-06T05:12:32,42.805,6.029,CST-1368DR,7430,10407,15315,0.078,551
2019-11-06T05:15:33,42.805,6.029,CST-1368DR,7430,10405,15313,0.078,551
2019-11-06T05:18:35,42.805,6.029,CST-1368DR,7430,10404,15311,0.079,551
2019-11-06T05:21:37,42.805,6.029,CST-1368DR,7429,10406,15316,0.078,551
2019-11-06T05:24:38,42.805,6.029,CST-1368DR,7429,10406,15316,0.078,551
2019-11-06T05:27:40,42.805,6.029,CST-1368DR,7429,10406,15317,0.077,551
2019-11-06T05:30:42,42.805,6.029,CST-1368DR,7429,10406,15317,0.077,551
2019-11-06T05:33:43,42.805,6.029,CST-1368DR,7429,10407,15317,0.077,551
2019-11-06T05:36:45,42.805,6.029,CST-1368DR,7430,10406,15315,0.078,551
2019-11-06T05:39:47,42.805,6.029,CST-1368DR,7430,10407,15315,0.078,551
2019-11-06T05:42:48,42.805,6.029,CST-1368DR,7429,10405,15315,0.078,551
2019-11-06T05:45:50,42.805,6.029,CST-1368DR,7429,10407,15318,0.077,551
2019-11-06T05:48:52,42.805,6.029,CST-1368DR,7429,10406,15316,0.078,551
2019-11-06T05:51:53,42.805,6.029,CST-1368DR,7429,10406,15316,0.078,551
2019-11-06T05:54:55,42.805,6.029,CST-1368DR,7429,10404,15314,0.078,551
2019-11-06T05:57:57,42.805,6.029,CST-1368DR,7429,10406,15315,0.078,551
2019-11-06T06:00:58,42.805,6.029,CST-1368DR,7429,10406,15316,0.078,551
2019-11-06T06:04:00,42.805,6.029,CST-1368DR,7429,10407,15318,0.077,551
2019-11-06T06:07:01,42.805,6.029,CST-1368DR,7429,10406,15316,0.078,551
2019-11-06T06:10:03,42.805,6.029,CST-1368DR,7429,10405,15314,0.078,551
2019-11-06T06:13:05,42.805,6.029,CST-1368DR,7429,10407,15318,0.077,551
2019-11-06T06:16:06,42.805,6.029,CST-1368DR,7429,10402,15310,0.079,551
2019-11-06T06:19:08,42.805,6.029,CST-1368DR,7429,10406,15317,0.077,551
2019-11-06T06:22:10,42.805,6.029,CST-1368DR,7429,10406,15317,0.077,551
2019-11-06T06:25:11,42.805,6.029,CST-1368DR,7429,10404,15314,0.078,551
2019-11-06T06:28:13,42.805,6.029,CST-1368DR,7429,10406,15315,0.078,551
2019-11-06T06:31:15,42.805,6.029,CST-1368DR,7429,10407,15318,0.077,551
2019-11-06T06:34:16,42.805,6.029,CST-1368DR,7429,10407,15318,0.077,551
2019-11-06T06:37:18,42.805,6.029,CST-1368DR,7429,10407,15317,0.077,551
2019-11-06T06:40:20,42.805,6.029,CST-1368DR,7429,10406,15316,0.078,551
2019-11-06T06:43:21,42.805,6.029,CST-1368DR,7429,10409,15320,0.077,551
2019-11-06T06:46:23,42.805,6.029,CST-1368DR,7429,10407,15318,0.077,551
2019-11-06T06:49:24,42.805,6.029,CST-1368DR,7429,10406,15316,0.078,551
2019-11-06T06:52:26,42.805,6.029,CST-1368DR,7429,10407,15317,0.077,551
2019-11-06T06:55:28,42.805,6.029,CST-1368DR,7429,10405,15315,0.078,551
2019-11-06T06:58:29,42.805,6.029,CST-1368DR,7429,10406,15315,0.078,551
2019-11-06T07:01:31,42.805,6.029,CST-1368DR,7429,10407,15317,0.077,551
2019-11-06T07:04:33,42.805,6.029,CST-1368DR,7429,10407,15318,0.077,551
2019-11-06T07:07:34,42.805,6.029,CST-1368DR,7429,10407,15318,0.077,551
2019-11-06T07:10:36,42.805,6.029,CST-1368DR,7429,10407,15317,0.077,551
2019-11-06T07:13:38,42.805,6.029,CST-1368DR,7429,10407,15318,0.077,551
2019-11-06T07:16:39,42.805,6.029,CST-1368DR,7429,10405,15315,0.078,551
2019-11-06T07:19:41,42.805,6.029,CST-1368DR,7429,10406,15316,0.078,551
2019-11-06T07:22:43,42.805,6.029,CST-1368DR,7429,10407,15317,0.077,551
2019-11-06T07:25:44,42.805,6.029,CST-1368DR,7429,10406,15315,0.078,551
2019-11-06T07:28:46,42.805,6.029,CST-1368DR,7429,10406,15315,0.078,551
2019-11-06T07:31:48,42.805,6.029,CST-1368DR,7429,10406,15316,0.078,551
2019-11-06T07:34:49,42.805,6.029,CST-1368DR,7429,10407,15318,0.077,551
2019-11-06T07:37:51,42.805,6.029,CST-1368DR,7429,10407,15318,0.077,551
2019-11-06T07:40:53,42.805,6.029,CST-1368DR,7429,10405,15315,0.078,551
2019-11-06T07:43:54,42.805,6.029,CST-1368DR,7429,10406,15317,0.077,551
2019-11-06T07:46:56,42.805,6.029,CST-1368DR,7429,10405,15315,0.078,551
2019-11-06T07:49:58,42.805,6.029,CST-1368DR,7429,10406,15317,0.077,551
2019-11-06T07:52:59,42.805,6.029,CST-1368DR,7429,10407,15317,0.077,551
2019-11-06T07:56:01,42.805,6.029,CST-1368DR,7429,10407,15317,0.077,551
2019-11-06T07:59:03,42.805,6.029,CST-1368DR,7429,10407,15318,0.077,551
2019-11-06T08:02:04,42.805,6.029,CST-1368DR,7429,10405,15315,0.078,551
2019-11-06T08:05:06,42.805,6.029,CST-1368DR,7429,10407,15318,0.077,551
2019-11-06T08:08:08,42.805,6.029,CST-1368DR,7429,10407,15317,0.077,551
2019-11-06T08:11:09,42.805,6.029,CST-1368DR,7428,10408,15320,0.077,551
2019-11-06T08:14:11,42.805,6.029,CST-1368DR,7428,10404,15315,0.078,551
2019-11-06T08:17:13,42.805,6.029,CST-1368DR,7428,10406,15319,0.077,551
2019-11-06T08:20:14,42.805,6.029,CST-1368DR,7428,10407,15319,0.077,551
2019-11-06T08:23:16,42.805,6.029,CST-1368DR,7428,10408,15320,0.077,551
2019-11-06T08:26:18,42.805,6.029,CST-1368DR,7428,10405,15317,0.077,551
2019-11-06T08:29:19,42.805,6.029,CST-1368DR,7428,10408,15320,0.077,551
2019-11-06T08:32:21,42.805,6.029,CST-1368DR,7428,10407,15319,0.077,551
2019-11-06T08:35:23,42.805,6.029,CST-1368DR,7428,10407,15319,0.077,551
2019-11-06T08:38:24,42.805,6.029,CST-1368DR,7428,10407,15320,0.077,551
2019-11-06T08:41:26,42.805,6.029,CST-1368DR,7428,10406,15318,0.077,551
2019-11-06T08:44:28,42.805,6.029,CST-1368DR,7428,10406,15319,0.077,551
2019-11-06T08:47:29,42.805,6.029,CST-1368DR,7428,10407,15319,0.077,551
2019-11-06T08:50:31,42.805,6.029,CST-1368DR,7428,10407,15320,0.077,550
2019-11-06T08:53:33,42.805,6.029,CST-1368DR,7428,10406,15319,0.077,550
2019-11-06T08:56:34,42.805,6.029,CST-1368DR,7428,10406,15317,0.077,551
2019-11-06T08:59:36,42.805,6.029,CST-1368DR,7428,10406,15317,0.077,551
2019-11-06T09:02:37,42.805,6.029,CST-1368DR,7428,10409,15322,0.076,551
2019-11-06T09:05:39,42.805,6.029,CST-1368DR,7428,10407,15319,0.077,551
2019-11-06T09:08:41,42.805,6.029,CST-1368DR,7428,10404,15315,0.078,551
2019-11-06T09:11:43,42.805,6.029,CST-1368DR,7428,10404,15314,0.078,551
2019-11-06T09:14:44,42.805,6.029,CST-1368DR,7428,10407,15319,0.077,551
2019-11-06T09:17:46,42.805,6.029,CST-1368DR,7428,10407,15320,0.077,551
2019-11-06T09:20:47,42.805,6.029,CST-1368DR,7428,10407,15320,0.077,551
2019-11-06T09:23:49,42.805,6.029,CST-1368DR,7428,10407,15319,0.077,551
2019-11-06T09:26:51,42.805,6.029,CST-1368DR,7428,10407,15319,0.077,551
2019-11-06T09:29:52,42.805,6.029,CST-1368DR,7428,10405,15316,0.078,551
2019-11-06T09:32:54,42.805,6.029,CST-1368DR,7428,10407,15319,0.077,551
2019-11-06T09:35:56,42.805,6.029,CST-1368DR,7428,10406,15318,0.077,551
2019-11-06T09:38:57,42.805,6.029,CST-1368DR,7428,10406,15318,0.077,551
2019-11-06T09:41:59,42.805,6.029,CST-1368DR,7428,10407,15320,0.077,551
2019-11-06T09:45:01,42.805,6.029,CST-1368DR,7428,10405,15317,0.077,551
2019-11-06T09:48:02,42.805,6.029,CST-1368DR,7428,10403,15313,0.078,551
2019-11-06T09:51:04,42.805,6.029,CST-1368DR,7428,10406,15318,0.077,550
2019-11-06T09:54:05,42.805,6.029,CST-1368DR,7428,10406,15318,0.077,550
2019-11-06T09:57:07,42.805,6.029,CST-1368DR,7428,10407,15320,0.077,551
2019-11-06T10:00:09,42.805,6.029,CST-1368DR,7428,10406,15317,0.077,551
2019-11-06T10:03:10,42.805,6.029,CST-1368DR,7428,10406,15317,0.077,551
2019-11-06T10:06:12,42.805,6.029,CST-1368DR,7428,10407,15319,0.077,551
2019-11-06T10:09:14,42.805,6.029,CST-1368DR,7428,10407,15320,0.077,551
2019-11-06T10:12:16,42.805,6.029,CST-1368DR,7428,10406,15317,0.077,551
2019-11-06T10:15:17,42.805,6.029,CST-1368DR,7428,10407,15319,0.077,551
2019-11-06T10:18:19,42.805,6.029,CST-1368DR,7428,10407,15320,0.077,551
2019-11-06T10:21:21,42.805,6.029,CST-1368DR,7428,10407,15320,0.077,551
2019-11-06T10:24:22,42.805,6.029,CST-1368DR,7428,10406,15318,0.077,551
2019-11-06T10:27:24,42.805,6.029,CST-1368DR,7428,10406,15318,0.077,551
2019-11-06T10:30:26,42.805,6.029,CST-1368DR,7428,10408,15320,0.077,551
2019-11-06T10:33:27,42.805,6.029,CST-1368DR,7428,10407,15319,0.077,551
2019-11-06T10:36:29,42.805,6.029,CST-1368DR,7428,10405,15317,0.077,551
2019-11-06T10:39:30,42.805,6.029,CST-1368DR,7428,10406,15318,0.077,551
2019-11-06T10:42:32,42.805,6.029,CST-1368DR,7428,10406,15318,0.077,551
2019-11-06T10:45:34,42.805,6.029,CST-1368DR,7428,10406,15318,0.077,551
2019-11-06T10:48:35,42.805,6.029,CST-1368DR,7428,10406,15318,0.077,551
2019-11-06T10:51:37,42.805,6.029,CST-1368DR,7428,10406,15317,0.077,551
2019-11-06T10:54:39,42.805,6.029,CST-1368DR,7428,10406,15317,0.077,551
2019-11-06T10:57:40,42.805,6.029,CST-1368DR,7428,10407,15320,0.077,551
2019-11-06T11:00:42,42.805,6.029,CST-1368DR,7428,10406,15319,0.077,551
2019-11-06T11:03:44,42.805,6.029,CST-1368DR,7427,10408,15322,0.076,551
2019-11-06T11:06:45,42.805,6.029,CST-1368DR,7427,10406,15319,0.077,551
2019-11-06T11:09:47,42.805,6.029,CST-1368DR,7427,10406,15320,0.077,551
2019-11-06T11:12:49,42.805,6.029,CST-1368DR,7427,10403,15315,0.078,551
2019-11-06T11:15:50,42.805,6.029,CST-1368DR,7427,10407,15321,0.076,551
2019-11-06T11:18:52,42.805,6.029,CST-1368DR,7428,10404,15315,0.078,551
2019-11-06T11:21:54,42.805,6.029,CST-1368DR,7428,10406,15319,0.077,550
2019-11-06T11:24:55,42.805,6.029,CST-1368DR,7427,10407,15321,0.076,551
2019-11-06T11:27:57,42.805,6.029,CST-1368DR,7427,10407,15322,0.076,551
2019-11-06T11:30:58,42.805,6.029,CST-1368DR,7427,10406,15320,0.077,551
2019-11-06T11:34:00,42.805,6.029,CST-1368DR,7427,10407,15322,0.076,551
2019-11-06T11:37:02,42.805,6.029,CST-1368DR,7427,10407,15321,0.076,551
2019-11-06T11:40:03,42.805,6.029,CST-1368DR,7427,10407,15321,0.076,551
2019-11-06T11:43:05,42.805,6.029,CST-1368DR,7427,10406,15320,0.077,550
2019-11-06T11:46:07,42.805,6.029,CST-1368DR,7427,10406,15320,0.077,550
2019-11-06T11:49:08,42.805,6.029,CST-1368DR,7427,10404,15316,0.078,551
2019-11-06T11:52:10,42.805,6.029,CST-1368DR,7427,10405,15318,0.077,550
2019-11-06T11:55:12,42.805,6.029,CST-1368DR,7427,10407,15321,0.076,551
2019-11-06T11:58:13,42.805,6.029,CST-1368DR,7427,10404,15317,0.077,551
2019-11-06T12:01:15,42.805,6.029,CST-1368DR,7427,10406,15320,0.077,551
2019-11-06T12:04:17,42.805,6.029,CST-1368DR,7427,10406,15320,0.077,551
2019-11-06T12:07:18,42.805,6.029,CST-1368DR,7427,10400,15312,0.079,551
2019-11-06T12:10:20,42.805,6.029,CST-1368DR,7427,10405,15318,0.077,551
2019-11-06T12:13:22,42.805,6.029,CST-1368DR,7427,10405,15319,0.077,551
2019-11-06T12:16:23,42.805,6.029,CST-1368DR,7427,10406,15320,0.077,550
2019-11-06T12:19:25,42.805,6.029,CST-1368DR,7427,10406,15320,0.077,551
2019-11-06T12:22:27,42.805,6.029,CST-1368DR,7427,10405,15319,0.077,551
2019-11-06T12:25:28,42.805,6.029,CST-1368DR,7427,10405,15318,0.077,551
2019-11-06T12:28:30,42.805,6.029,CST-1368DR,7427,10406,15319,0.077,551
2019-11-06T12:31:32,42.805,6.029,CST-1368DR,7427,10406,15320,0.077,551
2019-11-06T12:34:33,42.805,6.029,CST-1368DR,7427,10405,15318,0.077,551
2019-11-06T12:37:35,42.805,6.029,CST-1368DR,7427,10406,15319,0.077,551
2019-11-06T12:40:37,42.805,6.029,CST-1368DR,7427,10405,15319,0.077,551
2019-11-06T12:43:38,42.805,6.029,CST-1368DR,7427,10406,15319,0.077,551
2019-11-06T12:46:40,42.805,6.029,CST-1368DR,7427,10403,15316,0.078,551
2019-11-06T12:49:41,42.805,6.029,CST-1368DR,7427,10406,15319,0.077,551
2019-11-06T12:52:43,42.805,6.029,CST-1368DR,7427,10404,15317,0.077,551
2019-11-06T12:55:45,42.805,6.029,CST-1368DR,7427,10406,15319,0.077,551
2019-11-06T12:58:46,42.805,6.029,CST-1368DR,7427,10405,15318,0.077,551
2019-11-06T13:01:48,42.805,6.029,CST-1368DR,7427,10405,15319,0.077,551
2019-11-06T13:04:50,42.805,6.029,CST-1368DR,7427,10405,15319,0.077,551
2019-11-06T13:07:51,42.805,6.029,CST-1368DR,7427,10404,15317,0.077,551
2019-11-06T13:10:53,42.805,6.029,CST-1368DR,7427,10404,15317,0.077,551
2019-11-06T13:13:55,42.805,6.029,CST-1368DR,7427,10404,15317,0.077,551
2019-11-06T13:16:56,42.805,6.029,CST-1368DR,7427,10404,15317,0.077,551
2019-11-06T13:19:58,42.805,6.029,CST-1368DR,7427,10404,15317,0.077,551
2019-11-06T13:23:00,42.805,6.029,CST-1368DR,7427,10405,15319,0.077,551
2019-11-06T13:26:01,42.805,6.029,CST-1368DR,7427,10402,15314,0.078,551
2019-11-06T13:29:03,42.805,6.029,CST-1368DR,7427,10400,15312,0.079,551
2019-11-06T13:32:04,42.805,6.029,CST-1368DR,7427,10405,15319,0.077,551
2019-11-06T13:35:06,42.805,6.029,CST-1368DR,7427,10404,15317,0.077,551
2019-11-06T13:38:08,42.805,6.029,CST-1368DR,7427,10404,15316,0.078,551
2019-11-06T13:41:09,42.805,6.029,CST-1368DR,7427,10403,15316,0.078,551
2019-11-06T13:44:11,42.805,6.029,CST-1368DR,7427,10404,15317,0.077,551
2019-11-06T13:47:13,42.805,6.029,CST-1368DR,7427,10404,15317,0.077,550
2019-11-06T13:50:14,42.805,6.029,CST-1368DR,7427,10405,15318,0.077,551
2019-11-06T13:53:16,42.805,6.029,CST-1368DR,7427,10405,15319,0.077,551
2019-11-06T13:56:18,42.805,6.029,CST-1368DR,7427,10404,15317,0.077,551
2019-11-06T13:59:20,42.805,6.029,CST-1368DR,7427,10403,15315,0.078,550
2019-11-06T14:02:21,42.805,6.029,CST-1368DR,7427,10403,15315,0.078,550
2019-11-06T14:05:23,42.805,6.029,CST-1368DR,7427,10404,15317,0.077,551
2019-11-06T14:08:25,42.805,6.029,CST-1368DR,7427,10404,15316,0.078,551
2019-11-06T14:11:26,42.805,6.029,CST-1368DR,7427,10404,15317,0.077,551
2019-11-06T14:14:28,42.805,6.029,CST-1368DR,7427,10404,15317,0.077,551
2019-11-06T14:17:30,42.805,6.029,CST-1368DR,7426,10403,15317,0.077,551
2019-11-06T14:20:31,42.805,6.029,CST-1368DR,7427,10403,15315,0.078,551
2019-11-06T14:23:33,42.805,6.029,CST-1368DR,7426,10403,15318,0.077,550
2019-11-06T14:26:34,42.805,6.029,CST-1368DR,7426,10403,15318,0.077,551
2019-11-06T14:29:36,42.805,6.029,CST-1368DR,7426,10402,15316,0.078,551
2019-11-06T14:32:38,42.805,6.029,CST-1368DR,7426,10403,15317,0.077,551
2019-11-06T14:35:39,42.805,6.029,CST-1368DR,7426,10403,15317,0.077,551
2019-11-06T14:38:41,42.805,6.029,CST-1368DR,7426,10403,15318,0.077,551
2019-11-06T14:41:43,42.805,6.029,CST-1368DR,7426,10403,15317,0.077,551
2019-11-06T14:44:44,42.805,6.029,CST-1368DR,7426,10403,15317,0.077,551
2019-11-06T14:47:46,42.805,6.029,CST-1368DR,7427,10404,15317,0.077,551
2019-11-06T14:50:48,42.805,6.029,CST-1368DR,7426,10403,15318,0.077,551
2019-11-06T14:53:49,42.805,6.029,CST-1368DR,7426,10402,15316,0.078,551
2019-11-06T14:56:51,42.805,6.029,CST-1368DR,7426,10403,15317,0.077,551
2019-11-06T14:59:53,42.805,6.029,CST-1368DR,7426,10403,15317,0.077,551
2019-11-06T15:02:54,42.805,6.029,CST-1368DR,7426,10403,15317,0.077,551
2019-11-06T15:05:56,42.805,6.029,CST-1368DR,7426,10403,15317,0.077,551
2019-11-06T15:08:57,42.805,6.029,CST-1368DR,7426,10404,15319,0.077,551
2019-11-06T15:11:59,42.805,6.029,CST-1368DR,7426,10403,15318,0.077,551
2019-11-06T15:15:01,42.805,6.029,CST-1368DR,7426,10403,15317,0.077,551
2019-11-06T15:18:02,42.805,6.029,CST-1368DR,7426,10403,15317,0.077,551
2019-11-06T15:21:04,42.805,6.029,CST-1368DR,7426,10402,15316,0.078,550
2019-11-06T15:24:06,42.805,6.029,CST-1368DR,7426,10403,15317,0.077,551
2019-11-06T15:27:07,42.805,6.029,CST-1368DR,7426,10400,15313,0.078,551
2019-11-06T15:30:09,42.805,6.029,CST-1368DR,7426,10403,15317,0.077,551
2019-11-06T15:33:11,42.805,6.029,CST-1368DR,7426,10403,15317,0.077,550
2019-11-06T15:36:12,42.805,6.029,CST-1368DR,7426,10402,15315,0.078,551
2019-11-06T15:39:14,42.805,6.029,CST-1368DR,7426,10403,15318,0.077,551
2019-11-06T15:42:16,42.805,6.029,CST-1368DR,7426,10404,15318,0.077,551
2019-11-06T15:45:17,42.805,6.029,CST-1368DR,7426,10404,15318,0.077,551
2019-11-06T15:48:19,42.805,6.029,CST-1368DR,7426,10403,15317,0.077,551
2019-11-06T15:51:20,42.805,6.029,CST-1368DR,7426,10403,15318,0.077,551
2019-11-06T15:54:22,42.805,6.029,CST-1368DR,7426,10403,15318,0.077,551
2019-11-06T15:57:24,42.805,6.029,CST-1368DR,7426,10404,15319,0.077,551
2019-11-06T16:00:25,42.805,6.029,CST-1368DR,7426,10401,15315,0.078,551
2019-11-06T16:03:27,42.805,6.029,CST-1368DR,7426,10400,15313,0.078,551
2019-11-06T16:06:29,42.805,6.029,CST-1368DR,7426,10403,15317,0.077,551
2019-11-06T16:09:30,42.805,6.029,CST-1368DR,7426,10403,15318,0.077,551
2019-11-06T16:12:32,42.805,6.029,CST-1368DR,7426,10403,15318,0.077,551
2019-11-06T16:15:34,42.805,6.029,CST-1368DR,7426,10402,15316,0.078,551
2019-11-06T16:18:35,42.805,6.029,CST-1368DR,7426,10401,15315,0.078,551
2019-11-06T16:21:37,42.805,6.029,CST-1368DR,7426,10403,15318,0.077,551
2019-11-06T16:24:39,42.805,6.029,CST-1368DR,7426,10404,15319,0.077,551
2019-11-06T16:27:40,42.805,6.029,CST-1368DR,7426,10402,15316,0.078,551
2019-11-06T16:30:42,42.805,6.029,CST-1368DR,7426,10404,15319,0.077,551
2019-11-06T16:33:43,42.805,6.029,CST-1368DR,7426,10404,15319,0.077,551
2019-11-06T16:36:45,42.805,6.029,CST-1368DR,7426,10404,15319,0.077,551